Waarnemingen

Advertentie
Mijn weer
Sa Pobla, Spanje (8312): temperatuur & dauwpunt: 14.01.2018 00:00:00 - 20.01.2018 00:00:00 (CET)Sa Pobla, Spanje (8312): windsnelheid & windstoten: 14.01.2018 00:00:00 - 20.01.2018 00:00:00 (CET)Sa Pobla, Spanje (8312): windrichting: 14.01.2018 00:00:00 - 20.01.2018 00:00:00 (CET)Sa Pobla, Spanje (8312): luchtdruk: 14.01.2018 00:00:00 - 20.01.2018 00:00:00 (CET)Sa Pobla, Spanje (8312): zicht: 14.01.2018 00:00:00 - 20.01.2018 00:00:00 (CET)Sa Pobla, Spanje (8312): Zonneschijnduur: 14.01.2018 00:00:00 - 20.01.2018 00:00:00 (CET)Sa Pobla, Spanje (8312): neerslag: 14.01.2018 00:00:00 - 20.01.2018 00:00:00 (CET)
Datum & Tijd tt [°C] td [°C] ff [km/u] ff [kn] fx [km/u] fx [kn] dd ppp [hPa] vv [km] sd [min] rr [mm]
20.01.2018 00:00:00 - - - - - - - - - - -
19.01.2018 23:00:00 7,8 6,4 5 3 12 6 ZW 1022,0 16 0 0,0
19.01.2018 22:00:00 7,5 5,9 4 2 10 5 ZW 1021,6 12 0 0,0
19.01.2018 21:00:00 8,4 6,4 6 3 10 5 Z 1021,2 17 0 0,0
19.01.2018 20:00:00 9,1 6,7 5 3 11 6 ZZW 1020,8 20 0 0,0
19.01.2018 19:00:00 10,6 6,7 3 2 8 4 ZZW 1020,1 20 0 -
19.01.2018 18:00:00 13,2 7,4 4 2 12 7 Z 1019,8 20 0 0,0
19.01.2018 17:00:00 15,1 8,4 4 2 17 9 ZW 1019,4 20 4 0,0
19.01.2018 16:00:00 16,1 7,8 5 3 12 7 ZZW 1018,8 20 0 0,0
19.01.2018 15:00:00 15,9 7,7 5 3 15 8 ZZW 1018,4 20 0 0,0
19.01.2018 14:00:00 15,9 8,4 8 4 18 10 ZZW 1018,6 20 0 0,0
19.01.2018 13:00:00 15,8 7,8 7 4 16 8 ZW 1019,5 20 38 -
19.01.2018 12:00:00 14,1 10,9 8 4 14 8 Z 1020,3 20 60 0,0
19.01.2018 11:00:00 8,7 8,1 4 2 13 7 ZW 1021,0 19 24 0,0
19.01.2018 10:00:00 6,3 5,8 8 4 10 5 Z 1020,9 19 0 0,0
19.01.2018 09:00:00 5,6 5,0 4 2 7 4 ZZW 1020,1 13 0 0,0
19.01.2018 08:00:00 5,6 5,0 5 3 13 7 WZW 1019,9 15 0 0,0
19.01.2018 07:00:00 5,7 5,1 6 4 10 6 Z 1019,8 13 0 -
19.01.2018 06:00:00 6,1 5,5 6 4 10 6 Z 1019,8 9 0 0,0
19.01.2018 05:00:00 6,4 5,8 4 2 11 6 ZZW 1020,3 12 0 0,0
19.01.2018 04:00:00 6,6 5,9 5 3 8 5 ZW 1020,6 13 0 0,0
19.01.2018 03:00:00 6,7 5,9 4 2 10 6 WZW 1021,0 11 0 0,0
19.01.2018 02:00:00 6,9 6,1 4 2 8 4 Z 1021,2 11 0 0,0
19.01.2018 01:00:00 7,4 6,5 5 3 8 4 Z 1021,7 13 0 -
19.01.2018 00:00:00 7,9 6,8 5 3 8 5 Z 1022,2 11 0 0,0
18.01.2018 23:00:00 8,6 7,3 5 3 9 5 ZZW 1022,7 17 0 0,0
18.01.2018 22:00:00 9,9 8,0 6 3 11 6 ZZW 1022,7 19 0 0,0
18.01.2018 21:00:00 10,3 7,8 5 3 9 5 ZW 1022,9 20 0 0,0
18.01.2018 20:00:00 11,4 7,8 6 3 12 6 Z 1023,0 20 0 0,0
18.01.2018 19:00:00 12,3 8,3 8 4 14 8 ZZW 1022,9 20 0 -
18.01.2018 18:00:00 14,0 8,4 8 5 17 9 ZZW 1022,7 20 0 0,0
18.01.2018 17:00:00 15,1 8,5 6 3 18 10 ZZW 1022,7 20 27 0,0
18.01.2018 16:00:00 16,9 8,4 10 5 17 9 Z 1022,9 20 16 0,0
18.01.2018 15:00:00 17,2 9,2 8 4 20 11 ZZW 1023,6 11 12 0,0
18.01.2018 14:00:00 15,9 8,4 7 4 18 10 ZZW 1024,5 20 21 0,0
18.01.2018 13:00:00 15,8 9,0 9 5 19 10 Z 1025,7 20 3 -
18.01.2018 12:00:00 15,8 9,2 8 4 17 9 Z 1026,8 14 52 0,0
18.01.2018 11:00:00 14,6 9,4 6 3 10 5 Z 1027,5 20 60 0,0
18.01.2018 10:00:00 11,3 9,7 6 3 10 6 Z 1027,5 15 60 0,0
18.01.2018 09:00:00 8,3 7,3 6 3 8 4 Z 1027,4 13 19 0,0
18.01.2018 08:00:00 8,3 7,1 4 2 8 4 ZZW 1027,0 10 0 0,0
18.01.2018 07:00:00 9,7 8,5 3 2 7 4 ZZW 1026,7 14 0 -
18.01.2018 06:00:00 9,9 8,7 3 2 9 5 ZZW 1026,5 14 0 0,0
18.01.2018 05:00:00 9,4 8,1 5 3 12 6 Z 1026,8 13 0 0,0
18.01.2018 04:00:00 9,1 7,8 4 2 8 4 ZZW 1027,1 12 0 0,0
18.01.2018 03:00:00 9,1 7,7 5 3 7 4 Z 1027,2 14 0 0,0
18.01.2018 02:00:00 9,7 8,1 4 2 8 4 Z 1027,2 12 0 0,0
18.01.2018 01:00:00 10,5 8,9 1 1 6 3 ZW 1027,9 12 0 -
18.01.2018 00:00:00 11,0 9,4 3 2 6 4 ZW 1027,7 12 0 0,0
17.01.2018 23:00:00 11,3 9,6 2 1 6 3 WNW 1027,6 11 0 0,0
17.01.2018 22:00:00 11,7 9,3 2 1 9 5 WZW 1027,1 12 0 0,0
17.01.2018 21:00:00 12,1 8,9 3 2 7 4 ZO 1026,6 11 0 0,0
17.01.2018 20:00:00 12,0 8,3 1 1 15 8 NNO 1025,9 13 0 0,0
17.01.2018 19:00:00 12,2 8,1 8 5 19 10 ONO 1025,0 13 0 -
17.01.2018 18:00:00 13,7 5,3 7 4 19 10 N 1024,0 20 0 0,0
17.01.2018 17:00:00 15,9 4,6 11 6 27 15 NW 1023,0 20 56 0,0
17.01.2018 16:00:00 17,3 4,3 7 4 36 19 NW 1022,3 20 51 0,0
17.01.2018 15:00:00 17,7 5,0 12 6 37 20 WNW 1021,5 20 60 0,0
17.01.2018 14:00:00 17,9 5,5 13 7 42 23 WNW 1021,2 20 60 0,0
17.01.2018 13:00:00 17,9 5,1 21 12 56 30 WNW 1020,5 20 60 -
17.01.2018 12:00:00 17,9 4,1 14 8 49 26 WNW 1021,6 20 60 0,0
17.01.2018 11:00:00 18,1 5,3 16 8 51 27 WNW 1020,7 20 54 0,0
17.01.2018 10:00:00 17,9 5,8 18 10 48 26 WNW 1019,6 20 60 0,0
17.01.2018 09:00:00 17,5 5,5 17 9 51 27 W 1018,3 20 40 0,0
17.01.2018 08:00:00 17,1 4,8 19 10 60 32 W 1018,1 20 0 0,0
17.01.2018 07:00:00 17,7 3,9 21 12 46 25 WNW 1017,8 20 0 -
17.01.2018 06:00:00 17,4 4,3 18 10 47 26 WNW 1017,3 20 0 0,0
17.01.2018 05:00:00 13,0 6,5 8 5 24 13 Z 1017,5 20 0 0,0
17.01.2018 04:00:00 13,0 7,8 8 4 21 11 N 1017,9 20 0 0,0
17.01.2018 03:00:00 11,4 8,1 5 3 16 9 Z 1019,0 20 0 0,0
17.01.2018 02:00:00 11,5 7,6 5 3 16 8 ZZO 1019,0 20 0 0,0
17.01.2018 01:00:00 12,7 7,1 10 5 16 9 Z 1019,3 20 0 -
17.01.2018 00:00:00 12,9 7,1 4 2 16 9 ZZW 1020,1 20 0 0,0
16.01.2018 23:00:00 12,4 8,1 6 4 19 11 ZW 1020,6 20 0 0,0
16.01.2018 22:00:00 10,7 7,0 7 4 14 7 ZZW 1020,9 20 0 0,0
16.01.2018 21:00:00 11,0 6,7 3 2 16 9 NNO 1021,3 20 0 0,0
16.01.2018 20:00:00 12,2 7,7 4 2 21 11 W 1021,3 20 0 0,0
16.01.2018 19:00:00 13,2 7,1 11 6 25 14 ZZW 1021,4 20 0 -
16.01.2018 18:00:00 13,9 6,1 8 4 34 18 ZZO 1021,4 20 0 0,0
16.01.2018 17:00:00 15,8 6,8 16 9 46 25 ZZW 1021,3 20 56 0,0
16.01.2018 16:00:00 16,4 6,8 22 12 48 26 ZZW 1021,2 20 60 0,0
16.01.2018 15:00:00 16,5 7,4 23 12 45 24 ZZW 1021,7 20 60 0,0
16.01.2018 14:00:00 17,0 7,6 23 12 48 26 ZZW 1022,6 20 60 0,0
16.01.2018 13:00:00 16,9 7,3 21 11 42 23 ZZW 1023,5 20 60 -
16.01.2018 12:00:00 16,3 6,4 21 11 39 21 ZZW 1024,3 20 60 0,0
16.01.2018 11:00:00 15,3 6,2 14 8 33 18 ZW 1024,8 20 60 0,0
16.01.2018 10:00:00 13,6 6,7 16 9 32 18 ZZW 1024,5 20 60 0,0
16.01.2018 09:00:00 11,8 7,1 17 9 31 17 ZZW 1023,9 20 39 0,0
16.01.2018 08:00:00 10,7 6,4 14 8 32 18 ZZW 1023,7 20 0 0,0
16.01.2018 07:00:00 10,8 7,3 20 11 45 25 ZZW 1023,3 20 0 -
16.01.2018 06:00:00 11,8 7,6 20 11 53 28 ZW 1023,5 20 0 0,0
16.01.2018 05:00:00 8,3 6,5 9 5 25 14 Z 1024,0 20 0 0,0
16.01.2018 04:00:00 7,6 6,2 14 7 22 12 Z 1025,2 20 0 0,0
16.01.2018 03:00:00 6,5 5,3 9 5 16 8 Z 1025,7 20 0 0,0
16.01.2018 02:00:00 6,2 4,5 6 3 16 9 ZZW 1026,2 20 0 0,0
16.01.2018 01:00:00 7,2 4,6 9 5 22 12 Z 1026,5 20 0 -
16.01.2018 00:00:00 8,4 5,0 13 7 22 12 ZZW 1027,1 20 0 0,0
15.01.2018 23:00:00 6,4 3,6 10 5 17 9 ZZW 1027,1 20 0 0,0
15.01.2018 22:00:00 6,5 3,2 4 2 16 9 WZW 1027,0 20 0 0,0
15.01.2018 21:00:00 6,4 3,2 6 3 13 7 ZZW 1026,5 20 0 0,0
15.01.2018 20:00:00 7,3 3,0 6 4 12 7 ZZW 1026,2 20 0 0,0
15.01.2018 19:00:00 9,1 4,1 6 4 11 6 ZZW 1025,7 20 0 -
15.01.2018 18:00:00 11,4 5,9 4 2 8 4 O 1025,6 20 0 0,0
15.01.2018 17:00:00 13,9 6,7 6 4 10 5 O 1024,9 20 28 0,0
15.01.2018 16:00:00 15,0 5,0 5 3 13 7 OZO 1024,5 20 57 0,0
15.01.2018 15:00:00 15,8 5,9 5 3 13 7 O 1024,4 20 55 0,0
15.01.2018 14:00:00 15,7 4,5 3 2 9 5 ZZO 1024,9 20 59 0,0
15.01.2018 13:00:00 15,2 4,8 4 2 12 6 O 1025,5 20 60 -
15.01.2018 12:00:00 13,9 5,5 4 2 9 5 ZZO 1026,1 20 60 0,0
15.01.2018 11:00:00 10,6 7,3 6 4 10 5 Z 1026,1 20 60 0,0
15.01.2018 10:00:00 6,4 5,3 6 3 9 5 Z 1025,7 20 60 0,0
15.01.2018 09:00:00 2,6 2,1 5 3 11 6 ZZW 1025,2 20 28 0,0
15.01.2018 08:00:00 1,3 0,9 6 3 10 5 Z 1024,5 19 0 0,0
15.01.2018 07:00:00 2,1 1,5 5 3 16 9 Z 1023,7 20 0 -
15.01.2018 06:00:00 2,1 1,7 11 6 15 8 ZZW 1023,1 20 0 0,0
15.01.2018 05:00:00 1,5 0,9 5 3 11 6 Z 1022,2 13 0 0,0
15.01.2018 04:00:00 2,2 1,5 5 3 11 6 Z 1022,7 13 0 0,0
15.01.2018 03:00:00 2,5 1,7 6 3 11 6 ZZW 1022,6 16 0 0,0
15.01.2018 02:00:00 3,0 2,1 4 2 11 6 ZZW 1022,4 18 0 0,0
15.01.2018 01:00:00 3,4 2,3 3 2 12 6 Z 1022,4 14 0 -
15.01.2018 00:00:00 3,9 2,5 7 4 11 6 Z 1022,3 17 0 0,0
14.01.2018 23:00:00 4,7 3,4 9 5 13 7 ZZW 1021,6 18 0 0,0
14.01.2018 22:00:00 5,3 3,4 3 1 10 5 ZZW 1021,3 17 0 0,0
14.01.2018 21:00:00 6,0 3,8 4 2 8 4 ZZW 1021,1 15 0 0,0
14.01.2018 20:00:00 6,9 3,9 4 2 8 4 W 1020,6 20 0 0,0
14.01.2018 19:00:00 8,5 3,8 4 2 16 9 Z 1019,3 20 0 -
14.01.2018 18:00:00 10,7 4,6 3 2 9 5 N 1018,7 20 0 0,0
14.01.2018 17:00:00 12,8 4,3 4 2 13 7 WZW 1017,9 20 0 0,0
14.01.2018 16:00:00 13,5 3,2 7 4 18 10 W 1017,5 20 7 0,0
14.01.2018 15:00:00 14,3 3,9 7 4 20 11 W 1017,1 20 16 0,0
14.01.2018 14:00:00 14,0 4,8 7 4 16 9 WNW 1017,2 20 44 0,0
14.01.2018 13:00:00 14,0 5,6 5 3 21 12 NW 1017,5 20 36 -
14.01.2018 12:00:00 12,8 5,5 11 6 21 11 WNW 1018,2 20 35 0,0
14.01.2018 11:00:00 13,0 6,4 7 4 16 9 NNW 1018,0 20 55 0,0
14.01.2018 10:00:00 10,7 8,0 5 3 13 7 ZZO 1017,7 20 27 0,0
14.01.2018 09:00:00 8,0 6,8 6 3 16 9 W 1017,2 20 14 0,0
14.01.2018 08:00:00 6,2 5,3 6 4 10 5 ZW 1016,5 20 0 0,0
14.01.2018 07:00:00 6,0 4,8 5 3 7 4 ZZO 1016,2 20 0 -
14.01.2018 06:00:00 7,9 6,8 5 3 10 5 WZW 1016,1 20 0 0,0
14.01.2018 05:00:00 6,1 5,0 0 0 6 3 N 1016,5 20 0 0,0
14.01.2018 04:00:00 6,4 4,8 2 1 7 4 Z 1017,2 20 0 0,0
14.01.2018 03:00:00 7,6 5,8 4 2 13 7 ZZW 1017,7 20 0 0,0
14.01.2018 02:00:00 7,8 5,8 7 4 13 7 ZZW 1017,8 20 0 0,0
14.01.2018 01:00:00 8,0 6,1 6 3 16 9 ZZW 1018,5 20 0 -
14.01.2018 00:00:00 7,4 5,8 4 2 10 5 Z 1019,5 20 0 0,0

tt = temperatuur
td = dauwpunt
ff = windsnelheid
fx = windstoten
dd = windrichting
ppp = luchtdruk
vv = zicht
sd = Zonneschijnduur
rr = neerslag

Weerstations in de omgeving